Wind_Speed
35 32 31 31 31 30 30 29 29 27 26 23 21 19 17 16 15 16 16 15 13 11 10 9 9 9 9 9 9 8 8 7 7 8 8 9 9 9 9 10 10 10 10 10
36 34 33 32 31 31 31 30 29 30 28 25 23 21 19 19 18 18 17 17 16 13 12 12 11 11 12 12 12 11 10 10 10 9 10 10 11 10 11 11 12 12 12 12
37 36 35 35 32 32 33 32 31 32 30 28 27 24 22 20 20 21 20 19 19 17 16 16 14 14 14 14 14 13 13 13 12 12 12 12 12 12 12 13 13 14 14 14
37 37 39 36 35 33 33 33 32 33 32 31 30 28 26 26 24 22 22 22 20 20 19 19 18 18 17 16 17 16 15 15 15 14 14 13 14 14 14 15 15 16 16 16
37 38 39 37 37 36 35 34 33 33 32 32 31 31 30 29 28 25 23 23 22 21 20 20 20 20 19 19 19 18 17 17 17 17 17 16 16 16 16 17 17 18 16 17
37 38 39 37 37 37 37 37 35 35 34 33 32 31 30 30 30 28 26 26 25 22 22 21 20 20 21 21 21 20 20 20 20 19 19 18 18 17 18 18 19 19 18 19
37 38 38 36 35 36 38 38 36 35 34 33 33 31 31 30 30 29 27 26 25 24 23 22 22 22 22 22 22 22 22 22 21 21 21 20 20 19 19 20 21 21 21 21
37 39 38 36 35 36 37 37 37 37 34 34 32 32 30 29 29 29 28 27 26 25 24 24 24 23 23 23 23 24 24 24 24 23 22 21 21 21 22 22 23 23 23 23
38 38 37 36 35 36 36 36 36 37 35 34 34 33 30 29 29 28 28 28 27 25 25 24 24 24 24 25 25 25 25 25 25 24 23 23 23 23 24 24 25 25 26 25
39 38 37 37 37 37 36 35 34 34 34 34 35 34 32 30 29 29 28 28 28 27 27 26 26 25 25 26 26 26 25 25 25 25 25 25 25 25 26 26 26 27 27 27
37 37 36 37 37 36 35 34 33 34 34 33 34 33 32 31 31 30 29 29 29 29 28 27 27 27 26 27 27 26 26 27 27 26 26 25 26 27 27 27 27 28 28 29
38 36 36 36 37 36 35 34 33 34 35 35 33 32 33 33 31 30 30 30 30 30 29 28 28 28 28 28 28 28 27 28 28 29 28 27 27 27 28 28 28 28 29 29
36 35 35 36 37 37 36 35 34 34 34 35 34 33 32 33 32 31 31 31 30 29 29 29 29 30 30 29 29 29 30 30 31 30 29 29 28 29 28 28 28 29 30 30
34 34 35 35 34 34 34 33 32 33 34 33 32 32 32 32 32 32 31 31 31 30 30 30 30 31 31 31 31 32 32 32 33 31 30 29 29 29 29 29 30 31 30 30
33 34 34 34 34 34 33 32 30 31 33 33 32 32 32 31 31 31 32 31 31 31 31 31 31 31 32 32 32 33 33 33 33 32 30 29 30 30 30 30 31 32 31 31
33 32 32 34 33 33 31 31 30 30 31 31 31 31 31 31 30 30 31 31 32 32 31 31 31 31 31 31 32 32 33 32 32 31 31 30 31 31 31 31 32 32 31 31
32 33 33 34 34 33 32 31 30 31 29 29 29 29 29 29 29 29 30 31 32 31 30 30 31 31 30 30 30 30 32 32 32 32 31 31 31 31 31 31 31 31 32 32
30 31 31 31 32 31 31 31 31 29 27 28 28 28 28 28 27 28 29 30 30 29 30 30 30 30 30 31 31 31 31 31 32 32 32 32 32 32 31 31 31 31 31 31
27 28 27 26 26 27 27 26 27 26 25 25 25 26 27 27 27 28 28 29 28 29 29 30 30 31 31 31 32 32 32 33 33 33 33 32 32 32 32 32 32 32 32 32
25 27 26 25 25 24 23 24 24 24 24 24 25 25 25 27 27 27 27 27 28 28 29 30 31 31 31 31 32 32 33 33 33 32 32 32 32 32 32 33 33 33 33 31
23 24 24 25 25 24 23 23 23 24 24 24 24 24 25 26 26 27 27 28 27 28 29 30 30 30 31 31 32 32 32 32 32 32 32 33 33 33 32 32 32 32 32 32
21 22 23 25 25 24 23 23 23 22 21 22 22 23 24 25 25 26 27 27 27 27 28 28 29 29 29 30 31 31 31 32 32 32 32 32 33 33 33 32 32 31 31 31
19 19 19 21 22 22 23 23 22 21 21 22 22 23 24 25 25 26 26 26 27 27 27 27 27 27 28 28 28 29 30 31 31 32 32 31 31 31 31 31 32 32 32 31
17 17 17 17 18 19 20 22 21 21 21 22 22 23 24 25 25 25 25 25 25 26 26 26 26 26 26 27 28 28 29 29 30 29 29 29 29 30 30 31 31 31 31 30
16 16 16 17 17 18 19 20 19 19 20 21 22 23 23 23 23 24 24 24 25 25 25 25 25 26 26 26 27 27 27 27 27 27 27 27 28 28 29 30 30 31 31 30
17 17 17 17 17 17 18 18 18 18 19 20 21 21 22 23 23 24 25 25 25 26 26 26 25 25 25 25 25 25 24 24 25 26 26 27 27 28 29 29 30 30 30 30
17 17 17 16 17 17 17 17 18 17 17 18 19 20 20 21 21 22 22 23 23 23 23 23 23 23 23 23 24 24 24 24 24 24 25 25 26 26 27 28 28 28 28 29
Wind_Direction
227 226 228 229 228 225 227 231 237 241 243 243 244 250 258 263 264 261 259 258 256 255 253 259 264 270 273 275 281 286 290 296 301 305 307 308 310 310 313 317 318 318 319 316
228 226 229 229 226 224 226 229 234 238 240 241 245 250 255 258 263 263 265 265 261 256 253 256 261 265 267 269 273 279 284 288 287 291 297 299 301 303 305 309 311 311 313 311
228 225 228 229 227 227 227 228 232 236 238 240 244 248 254 258 263 262 262 261 259 256 262 258 260 263 265 265 267 269 275 281 286 286 287 290 294 296 298 302 304 305 309 309
229 225 227 228 226 227 227 229 233 236 237 240 243 246 250 255 260 263 264 262 259 261 263 260 260 261 262 266 265 267 272 276 280 283 282 283 286 290 292 296 299 300 301 303
230 227 228 226 227 228 228 229 233 235 237 239 242 246 249 254 257 261 264 259 259 260 260 260 260 262 264 264 265 266 268 272 275 277 276 278 282 285 287 291 295 298 295 295
231 228 227 225 225 228 230 233 234 235 236 239 241 244 249 253 256 259 262 260 258 257 260 261 260 262 264 264 265 267 269 270 270 271 274 278 281 283 285 286 290 295 294 292
232 229 227 225 225 227 230 233 234 234 236 239 241 244 247 250 253 257 260 262 263 261 259 260 261 264 266 265 266 267 267 269 270 268 271 275 279 281 283 284 285 288 289 291
231 230 228 227 228 229 232 234 235 235 236 239 243 245 246 249 252 255 258 258 259 260 259 258 260 262 264 264 266 267 267 267 269 269 271 275 279 281 282 285 286 287 288 287
231 230 229 229 230 231 234 237 237 236 234 236 241 243 245 248 251 255 258 259 260 261 260 259 259 261 263 265 265 266 267 268 268 267 268 273 277 280 282 285 286 286 287 287
233 231 231 231 231 234 236 237 237 237 237 238 239 243 247 248 251 254 257 258 260 261 261 259 259 259 261 263 265 267 268 269 270 268 270 271 275 280 282 284 286 286 284 285
235 234 233 233 233 235 237 237 237 238 240 242 243 244 246 247 250 253 254 256 258 261 261 260 258 258 260 263 265 268 269 270 272 272 271 272 276 279 281 282 283 283 284 285
235 234 233 234 235 235 235 236 236 238 241 243 244 246 246 248 249 252 253 254 256 259 258 259 260 261 261 262 265 268 269 271 273 275 275 276 277 278 279 281 283 282 284 284
234 233 234 235 234 235 236 238 240 242 243 244 245 246 248 247 250 253 253 253 255 257 257 258 260 262 262 263 264 267 269 271 273 274 278 281 281 282 281 281 282 283 283 284
232 233 233 233 234 236 237 239 241 243 246 245 244 246 248 250 251 253 254 254 256 259 259 259 260 261 261 263 265 267 269 271 273 275 277 278 281 282 282 282 282 283 284 286
232 233 233 234 236 235 237 238 241 244 245 244 244 246 248 248 249 252 254 255 257 259 260 261 261 261 261 262 264 267 269 270 272 274 275 278 281 281 282 283 283 282 284 285
233 232 230 232 235 234 234 234 238 241 244 244 244 245 247 248 250 252 254 255 258 260 260 260 261 261 262 263 265 267 268 270 271 271 273 276 279 280 282 283 283 283 284 284
230 230 231 233 235 236 234 234 237 241 243 244 244 245 247 249 252 254 255 256 257 257 257 258 260 262 264 265 266 267 269 271 273 272 273 275 277 278 280 282 283 284 287 286
226 228 231 236 236 234 233 235 238 238 240 242 243 245 248 249 251 255 257 259 258 259 259 261 263 264 266 267 268 270 272 274 274 274 274 275 277 278 279 281 283 284 287 288
226 228 233 236 237 234 232 232 233 237 241 243 245 247 248 249 252 256 259 261 262 262 263 263 265 266 267 268 270 271 272 272 273 273 274 276 277 278 279 280 282 283 285 286
228 229 232 234 237 236 232 233 235 239 244 247 248 249 251 252 255 257 258 259 262 264 265 265 266 267 268 270 271 272 273 273 273 272 274 275 275 277 279 280 282 283 283 284
233 233 233 233 234 232 231 233 235 240 243 247 249 250 251 253 254 255 258 261 264 265 265 266 267 268 269 271 272 273 274 276 276 274 274 275 276 277 278 280 282 282 282 282
231 232 231 232 233 232 232 235 239 241 245 249 252 252 253 254 256 258 261 263 265 266 267 268 268 268 270 271 273 274 275 276 277 276 275 275 276 277 278 279 280 280 281 280
231 231 230 231 232 234 236 239 242 245 248 251 253 255 256 257 260 262 264 264 265 266 267 268 268 269 272 273 275 276 277 278 277 277 276 276 276 277 277 278 278 279 279 279
231 231 234 236 237 237 239 242 246 247 249 252 254 256 257 258 260 262 263 265 267 267 268 270 270 272 273 273 275 276 278 279 278 276 276 276 276 277 278 278 278 278 277 278
228 231 233 235 239 240 243 246 250 251 251 253 255 258 258 259 261 264 266 268 270 270 270 270 271 272 273 274 275 277 278 279 278 278 278 278 279 279 280 280 279 279 279 279
227 231 236 238 239 240 244 248 251 255 258 259 257 259 262 264 266 267 267 269 271 271 271 271 271 271 273 276 277 278 278 278 279 280 280 281 282 282 283 283 282 282 282 281
228 232 236 239 240 242 245 248 251 255 259 261 261 262 265 267 268 269 269 269 270 271 272 273 274 274 275 277 278 278 279 279 279 280 280 281 283 285 286 286 285 285 284 282
Height
5859 5864 5867 5870 5873 5876 5878 5880 5883 5886 5889 5891 5894 5896 5897 5897 5898 5899 5900 5901 5902 5903 5904 5904 5905 5906 5906 5905 5905 5904 5903 5903 5902 5901 5900 5899 5897 5896 5895 5893 5892 5890 5888 5887
5851 5856 5860 5863 5867 5870 5872 5875 5877 5880 5883 5886 5888 5890 5892 5893 5894 5895 5896 5898 5898 5899 5899 5900 5901 5902 5902 5902 5902 5901 5900 5900 5899 5898 5897 5896 5895 5893 5892 5891 5889 5887 5886 5884
5844 5849 5852 5856 5861 5863 5866 5868 5871 5873 5878 5880 5882 5885 5886 5887 5889 5890 5892 5893 5893 5894 5895 5895 5896 5897 5898 5898 5898 5897 5897 5897 5896 5895 5894 5893 5892 5890 5889 5888 5886 5884 5882 5881
5836 5841 5843 5851 5853 5856 5859 5862 5865 5868 5871 5874 5877 5879 5881 5882 5884 5886 5887 5888 5889 5889 5890 5891 5891 5892 5892 5892 5893 5893 5893 5892 5892 5891 5890 5889 5888 5887 5885 5884 5882 5880 5878 5876
5827 5831 5836 5842 5846 5849 5852 5855 5858 5861 5865 5867 5870 5872 5874 5876 5878 5880 5881 5882 5883 5884 5884 5885 5886 5887 5887 5887 5887 5887 5887 5887 5887 5886 5885 5884 5883 5882 5881 5879 5877 5875 5872 5872
5819 5823 5827 5835 5839 5841 5845 5847 5851 5854 5858 5861 5863 5866 5869 5870 5872 5873 5875 5876 5877 5878 5878 5878 5879 5880 5880 5881 5880 5880 5881 5881 5881 5880 5880 5879 5878 5877 5875 5874 5873 5871 5868 5867
5810 5814 5819 5826 5830 5834 5838 5841 5843 5846 5850 5853 5857 5860 5862 5863 5865 5866 5868 5869 5870 5871 5872 5873 5873 5874 5874 5874 5874 5874 5875 5875 5874 5874 5874 5873 5872 5871 5870 5868 5867 5865 5864 5862
5801 5806 5813 5818 5822 5826 5829 5833 5835 5839 5842 5846 5849 5852 5854 5856 5857 5859 5860 5862 5863 5865 5865 5866 5866 5867 5868 5868 5868 5868 5868 5868 5868 5867 5867 5867 5866 5865 5863 5862 5861 5859 5857 5856
5795 5800 5805 5809 5813 5817 5820 5824 5827 5830 5834 5838 5841 5843 5845 5848 5849 5851 5852 5854 5855 5857 5858 5859 5859 5860 5860 5861 5861 5861 5861 5861 5860 5860 5860 5860 5859 5858 5857 5855 5854 5852 5851 5849
5786 5791 5796 5801 5805 5809 5812 5816 5819 5823 5826 5829 5832 5834 5837 5839 5841 5843 5845 5846 5847 5849 5850 5851 5852 5852 5852 5853 5854 5854 5853 5853 5853 5852 5852 5852 5851 5850 5849 5848 5846 5845 5843 5842
5777 5783 5788 5792 5796 5801 5804 5808 5811 5814 5816 5819 5821 5824 5828 5831 5833 5834 5837 5838 5839 5841 5842 5843 5844 5844 5845 5845 5846 5846 5846 5846 5845 5845 5844 5843 5843 5842 5841 5840 5838 5837 5835 5834
5770 5775 5780 5784 5788 5792 5796 5799 5802 5806 5808 5810 5812 5816 5819 5821 5823 5826 5828 5829 5831 5832 5833 5835 5835 5836 5836 5837 5838 5838 5838 5838 5837 5837 5835 5834 5833 5833 5832 5831 5830 5828 5826 5825
5761 5766 5770 5775 5779 5784 5788 5791 5794 5797 5799 5801 5804 5807 5809 5812 5814 5816 5818 5820 5821 5822 5824 5825 5826 5827 5827 5828 5829 5829 5830 5829 5829 5828 5827 5826 5825 5824 5823 5822 5820 5819 5817 5816
5753 5758 5762 5766 5771 5775 5779 5783 5785 5789 5791 5793 5795 5798 5800 5803 5805 5807 5808 5810 5811 5812 5814 5816 5817 5818 5818 5819 5820 5820 5820 5820 5820 5819 5819 5818 5817 5815 5814 5813 5811 5809 5808 5806
5745 5750 5755 5758 5762 5766 5770 5774 5777 5780 5782 5785 5787 5789 5791 5793 5795 5797 5799 5800 5802 5803 5805 5806 5807 5808 5809 5809 5810 5810 5810 5810 5810 5809 5809 5809 5808 5806 5805 5804 5802 5800 5798 5797
5737 5740 5745 5750 5754 5758 5761 5765 5768 5771 5774 5776 5778 5780 5782 5784 5786 5788 5789 5790 5792 5794 5795 5796 5797 5798 5799 5800 5800 5801 5800 5800 5800 5800 5799 5799 5798 5797 5796 5794 5793 5791 5789 5787
5729 5732 5738 5743 5747 5750 5753 5757 5759 5762 5765 5767 5770 5772 5774 5776 5777 5779 5780 5781 5783 5784 5785 5786 5787 5788 5789 5790 5791 5791 5791 5791 5790 5790 5789 5789 5788 5787 5786 5784 5783 5781 5780 5778
5722 5726 5730 5734 5738 5742 5745 5748 5751 5754 5756 5759 5761 5763 5765 5767 5769 5771 5772 5772 5773 5774 5776 5777 5778 5779 5780 5780 5781 5781 5781 5781 5780 5780 5779 5779 5778 5777 5776 5775 5773 5771 5770 5767
5717 5721 5725 5729 5731 5733 5736 5739 5743 5747 5749 5751 5753 5755 5757 5759 5761 5762 5763 5764 5765 5766 5767 5768 5768 5769 5770 5770 5771 5771 5771 5771 5770 5769 5769 5768 5768 5767 5766 5765 5763 5762 5760 5758
5713 5717 5720 5723 5725 5727 5730 5734 5737 5740 5742 5744 5746 5748 5750 5751 5753 5754 5755 5756 5756 5757 5757 5758 5759 5759 5760 5760 5760 5760 5760 5760 5759 5759 5758 5758 5757 5757 5755 5754 5753 5752 5750 5749
5708 5711 5715 5718 5719 5722 5725 5728 5731 5733 5736 5738 5739 5741 5743 5744 5745 5746 5747 5747 5748 5748 5748 5749 5749 5750 5750 5750 5750 5750 5750 5749 5748 5748 5748 5747 5747 5746 5745 5744 5743 5741 5740 5739
5702 5705 5708 5711 5714 5717 5720 5722 5725 5727 5730 5732 5733 5735 5736 5737 5738 5738 5739 5740 5740 5739 5739 5739 5740 5740 5740 5740 5740 5740 5739 5739 5738 5737 5737 5736 5736 5735 5735 5734 5733 5732 5730 5729
5698 5700 5703 5706 5709 5711 5714 5716 5718 5721 5724 5725 5727 5728 5729 5729 5730 5731 5731 5731 5731 5731 5731 5731 5731 5731 5731 5731 5730 5730 5729 5729 5728 5727 5726 5726 5726 5725 5724 5724 5723 5722 5721 5719
5693 5696 5698 5701 5704 5706 5709 5711 5713 5715 5717 5719 5720 5720 5721 5722 5722 5723 5723 5723 5723 5722 5722 5722 5722 5722 5722 5721 5721 5721 5720 5719 5718 5717 5717 5716 5716 5716 5715 5714 5713 5712 5711 5710
5690 5693 5695 5697 5699 5702 5704 5706 5708 5709 5711 5712 5713 5713 5714 5714 5715 5715 5715 5715 5715 5715 5714 5714 5714 5714 5713 5713 5712 5712 5711 5710 5709 5708 5708 5707 5707 5706 5705 5704 5703 5702 5701 5700
5687 5689 5691 5693 5695 5697 5699 5701 5703 5704 5705 5706 5706 5706 5707 5707 5707 5708 5708 5708 5707 5707 5706 5706 5706 5705 5705 5704 5704 5703 5703 5702 5701 5700 5700 5699 5698 5697 5696 5695 5693 5692 5691 5690
5683 5685 5687 5689 5691 5693 5695 5697 5698 5699 5700 5700 5700 5701 5701 5701 5701 5701 5700 5700 5700 5699 5699 5698 5698 5697 5697 5696 5696 5696 5695 5694 5693 5692 5691 5690 5689 5688 5687 5685 5684 5682 5681 5680